owner,sensor,date,latitude,longitude,air_pressure(mBar),qcFlag 
DISL,ioos:station:DISL:MBLA:1,2017-10-01T00:00:00Z,30.4367,-88.0117,1014.5620445349,1111122 
DISL,ioos:station:DISL:MBLA:1,2017-10-01T00:30:00Z,30.4367,-88.0117,1014.9006834015,1111122 
DISL,ioos:station:DISL:MBLA:1,2017-10-01T01:00:00Z,30.4367,-88.0117,1015.2393222682,1111122 
DISL,ioos:station:DISL:MBLA:1,2017-10-01T01:30:00Z,30.4367,-88.0117,1015.5779611349,1111122 
DISL,ioos:station:DISL:MBLA:1,2017-10-01T02:00:00Z,30.4367,-88.0117,1015.5779611349,1111122 
DISL,ioos:station:DISL:MBLA:1,2017-10-01T02:30:00Z,30.4367,-88.0117,1015.5779611349,1111122 
DISL,ioos:station:DISL:MBLA:1,2017-10-01T03:00:00Z,30.4367,-88.0117,1014.9006834015,1111122 
DISL,ioos:station:DISL:MBLA:1,2017-10-01T03:30:00Z,30.4367,-88.0117,1015.2393222682,1111122 
DISL,ioos:station:DISL:MBLA:1,2017-10-01T04:00:00Z,30.4367,-88.0117,1015.2393222682,1111122 
DISL,ioos:station:DISL:MBLA:1,2017-10-01T04:30:00Z,30.4367,-88.0117,1015.5779611349,1111122 
DISL,ioos:station:DISL:MBLA:1,2017-10-01T05:00:00Z,30.4367,-88.0117,1015.2393222682,1111122 
DISL,ioos:station:DISL:MBLA:1,2017-10-01T05:30:00Z,30.4367,-88.0117,1015.2393222682,1111122 
DISL,ioos:station:DISL:MBLA:1,2017-10-01T06:00:00Z,30.4367,-88.0117,1015.2393222682,1111122 
DISL,ioos:station:DISL:MBLA:1,2017-10-01T06:30:00Z,30.4367,-88.0117,1015.5779611349,1111122 
DISL,ioos:station:DISL:MBLA:1,2017-10-01T07:00:00Z,30.4367,-88.0117,1015.5779611349,1111122 
DISL,ioos:station:DISL:MBLA:1,2017-10-01T07:30:00Z,30.4367,-88.0117,1015.5779611349,1111122 
DISL,ioos:station:DISL:MBLA:1,2017-10-01T08:00:00Z,30.4367,-88.0117,1015.2393222682,1111122 
DISL,ioos:station:DISL:MBLA:1,2017-10-01T08:30:00Z,30.4367,-88.0117,1015.2393222682,1111122 
DISL,ioos:station:DISL:MBLA:1,2017-10-01T09:00:00Z,30.4367,-88.0117,1015.5779611349,1111122 
DISL,ioos:station:DISL:MBLA:1,2017-10-01T09:30:00Z,30.4367,-88.0117,1015.9166000015,1111122 
DISL,ioos:station:DISL:MBLA:1,2017-10-01T10:00:00Z,30.4367,-88.0117,1015.2393222682,1111122 
DISL,ioos:station:DISL:MBLA:1,2017-10-01T10:30:00Z,30.4367,-88.0117,1015.5779611349,1111122 
DISL,ioos:station:DISL:MBLA:1,2017-10-01T11:00:00Z,30.4367,-88.0117,1015.9166000015,1111122 
DISL,ioos:station:DISL:MBLA:1,2017-10-01T11:30:00Z,30.4367,-88.0117,1015.5779611349,1111122 
DISL,ioos:station:DISL:MBLA:1,2017-10-01T12:00:00Z,30.4367,-88.0117,1015.5779611349,1111122 
DISL,ioos:station:DISL:MBLA:1,2017-10-01T12:30:00Z,30.4367,-88.0117,1016.2552388682,1111122 
DISL,ioos:station:DISL:MBLA:1,2017-10-01T13:00:00Z,30.4367,-88.0117,1015.9166000015,1111122 
DISL,ioos:station:DISL:MBLA:1,2017-10-01T13:30:00Z,30.4367,-88.0117,1016.2552388682,1111122 
DISL,ioos:station:DISL:MBLA:1,2017-10-01T14:00:00Z,30.4367,-88.0117,1015.9166000015,1111122 
DISL,ioos:station:DISL:MBLA:1,2017-10-01T14:30:00Z,30.4367,-88.0117,1016.2552388682,1111122 
DISL,ioos:station:DISL:MBLA:1,2017-10-01T15:00:00Z,30.4367,-88.0117,1016.5938777349,1111122 
DISL,ioos:station:DISL:MBLA:1,2017-10-01T15:30:00Z,30.4367,-88.0117,1016.5938777349,1111122 
DISL,ioos:station:DISL:MBLA:1,2017-10-01T16:00:00Z,30.4367,-88.0117,1016.2552388682,1111122 
DISL,ioos:station:DISL:MBLA:1,2017-10-01T16:30:00Z,30.4367,-88.0117,1016.5938777349,1111122 
DISL,ioos:station:DISL:MBLA:1,2017-10-01T17:00:00Z,30.4367,-88.0117,1016.2552388682,1111122 
DISL,ioos:station:DISL:MBLA:1,2017-10-01T17:30:00Z,30.4367,-88.0117,1016.5938777349,1111122 
DISL,ioos:station:DISL:MBLA:1,2017-10-01T18:00:00Z,30.4367,-88.0117,1015.9166000015,1111122 
DISL,ioos:station:DISL:MBLA:1,2017-10-01T18:30:00Z,30.4367,-88.0117,1015.5779611349,1111122 
DISL,ioos:station:DISL:MBLA:1,2017-10-01T19:00:00Z,30.4367,-88.0117,1014.9006834015,1111122 
DISL,ioos:station:DISL:MBLA:1,2017-10-01T19:30:00Z,30.4367,-88.0117,1014.5620445349,1111122 
DISL,ioos:station:DISL:MBLA:1,2017-10-01T20:00:00Z,30.4367,-88.0117,1014.5620445349,1111122 
DISL,ioos:station:DISL:MBLA:1,2017-10-01T20:30:00Z,30.4367,-88.0117,1014.5620445349,1111122 
DISL,ioos:station:DISL:MBLA:1,2017-10-01T21:00:00Z,30.4367,-88.0117,1014.5620445349,1111122 
DISL,ioos:station:DISL:MBLA:1,2017-10-01T21:30:00Z,30.4367,-88.0117,1014.9006834015,1111122 
DISL,ioos:station:DISL:MBLA:1,2017-10-01T22:00:00Z,30.4367,-88.0117,1014.5620445349,1111122 
DISL,ioos:station:DISL:MBLA:1,2017-10-01T22:30:00Z,30.4367,-88.0117,1014.9006834015,1111122 
DISL,ioos:station:DISL:MBLA:1,2017-10-01T23:00:00Z,30.4367,-88.0117,1014.9006834015,1111122 
DISL,ioos:station:DISL:MBLA:1,2017-10-01T23:30:00Z,30.4367,-88.0117,1015.5779611349,1111122 
DISL,ioos:station:DISL:MBLA:1,2017-10-02T00:00:00Z,30.4367,-88.0117,1015.2393222682,1111122 
DISL,ioos:station:DISL:MBLA:1,2017-10-02T00:30:00Z,30.4367,-88.0117,1016.2552388682,1111122 
DISL,ioos:station:DISL:MBLA:1,2017-10-02T01:00:00Z,30.4367,-88.0117,1016.2552388682,1111122 
DISL,ioos:station:DISL:MBLA:1,2017-10-02T01:30:00Z,30.4367,-88.0117,1016.2552388682,1111122 
DISL,ioos:station:DISL:MBLA:1,2017-10-02T02:00:00Z,30.4367,-88.0117,1016.5938777349,1111122 
DISL,ioos:station:DISL:MBLA:1,2017-10-02T02:30:00Z,30.4367,-88.0117,1016.5938777349,1111122 
DISL,ioos:station:DISL:MBLA:1,2017-10-02T03:00:00Z,30.4367,-88.0117,1016.9325166016,1111122 
DISL,ioos:station:DISL:MBLA:1,2017-10-02T03:30:00Z,30.4367,-88.0117,1016.9325166016,1111122 
DISL,ioos:station:DISL:MBLA:1,2017-10-02T04:00:00Z,30.4367,-88.0117,1016.9325166016,1111122 
DISL,ioos:station:DISL:MBLA:1,2017-10-02T04:30:00Z,30.4367,-88.0117,1016.5938777349,1111122 
DISL,ioos:station:DISL:MBLA:1,2017-10-02T05:00:00Z,30.4367,-88.0117,1016.5938777349,1111122 
DISL,ioos:station:DISL:MBLA:1,2017-10-02T05:30:00Z,30.4367,-88.0117,1016.2552388682,1111122 
DISL,ioos:station:DISL:MBLA:1,2017-10-02T06:00:00Z,30.4367,-88.0117,1015.9166000015,1111122 
DISL,ioos:station:DISL:MBLA:1,2017-10-02T06:30:00Z,30.4367,-88.0117,1015.5779611349,1111122 
DISL,ioos:station:DISL:MBLA:1,2017-10-02T07:00:00Z,30.4367,-88.0117,1015.9166000015,1111122 
DISL,ioos:station:DISL:MBLA:1,2017-10-02T07:30:00Z,30.4367,-88.0117,1015.5779611349,1111122 
DISL,ioos:station:DISL:MBLA:1,2017-10-02T08:00:00Z,30.4367,-88.0117,1015.5779611349,1111122 
DISL,ioos:station:DISL:MBLA:1,2017-10-02T08:30:00Z,30.4367,-88.0117,1015.5779611349,1111122 
DISL,ioos:station:DISL:MBLA:1,2017-10-02T09:00:00Z,30.4367,-88.0117,1015.9166000015,1111122 
DISL,ioos:station:DISL:MBLA:1,2017-10-02T09:30:00Z,30.4367,-88.0117,1015.9166000015,1111122 
DISL,ioos:station:DISL:MBLA:1,2017-10-02T10:00:00Z,30.4367,-88.0117,1015.9166000015,1111122 
DISL,ioos:station:DISL:MBLA:1,2017-10-02T10:30:00Z,30.4367,-88.0117,1015.9166000015,1111122 
DISL,ioos:station:DISL:MBLA:1,2017-10-02T11:00:00Z,30.4367,-88.0117,1015.9166000015,1111122 
DISL,ioos:station:DISL:MBLA:1,2017-10-02T11:30:00Z,30.4367,-88.0117,1016.5938777349,1111122 
DISL,ioos:station:DISL:MBLA:1,2017-10-02T12:00:00Z,30.4367,-88.0117,1017.2711554682,1111122 
DISL,ioos:station:DISL:MBLA:1,2017-10-02T12:30:00Z,30.4367,-88.0117,1017.9484332016,1111122 
DISL,ioos:station:DISL:MBLA:1,2017-10-02T13:00:00Z,30.4367,-88.0117,1017.6097943349,1111122 
DISL,ioos:station:DISL:MBLA:1,2017-10-02T13:30:00Z,30.4367,-88.0117,1017.6097943349,1111122 
DISL,ioos:station:DISL:MBLA:1,2017-10-02T14:00:00Z,30.4367,-88.0117,1018.2870720682,1111122 
DISL,ioos:station:DISL:MBLA:1,2017-10-02T14:30:00Z,30.4367,-88.0117,1018.6257109349,1111122 
DISL,ioos:station:DISL:MBLA:1,2017-10-02T15:00:00Z,30.4367,-88.0117,1018.9643498016,1111122 
DISL,ioos:station:DISL:MBLA:1,2017-10-02T15:30:00Z,30.4367,-88.0117,1018.9643498016,1111122 
DISL,ioos:station:DISL:MBLA:1,2017-10-02T16:00:00Z,30.4367,-88.0117,1018.6257109349,1111122 
DISL,ioos:station:DISL:MBLA:1,2017-10-02T16:30:00Z,30.4367,-88.0117,1018.6257109349,1111122 
DISL,ioos:station:DISL:MBLA:1,2017-10-02T17:00:00Z,30.4367,-88.0117,1018.2870720682,1111122 
DISL,ioos:station:DISL:MBLA:1,2017-10-02T17:30:00Z,30.4367,-88.0117,1018.2870720682,1111122 
DISL,ioos:station:DISL:MBLA:1,2017-10-02T18:00:00Z,30.4367,-88.0117,1018.2870720682,1111122 
DISL,ioos:station:DISL:MBLA:1,2017-10-02T18:30:00Z,30.4367,-88.0117,1018.6257109349,1111122 
DISL,ioos:station:DISL:MBLA:1,2017-10-02T19:00:00Z,30.4367,-88.0117,1018.2870720682,1111122 
DISL,ioos:station:DISL:MBLA:1,2017-10-02T19:30:00Z,30.4367,-88.0117,1017.9484332016,1111122 
DISL,ioos:station:DISL:MBLA:1,2017-10-02T20:00:00Z,30.4367,-88.0117,1017.6097943349,1111122 
DISL,ioos:station:DISL:MBLA:1,2017-10-02T20:30:00Z,30.4367,-88.0117,1018.6257109349,1111122 
DISL,ioos:station:DISL:MBLA:1,2017-10-02T21:00:00Z,30.4367,-88.0117,1018.9643498016,1111122 
DISL,ioos:station:DISL:MBLA:1,2017-10-02T21:30:00Z,30.4367,-88.0117,1018.9643498016,1111122 
DISL,ioos:station:DISL:MBLA:1,2017-10-02T22:00:00Z,30.4367,-88.0117,1018.6257109349,1111122 
DISL,ioos:station:DISL:MBLA:1,2017-10-02T22:30:00Z,30.4367,-88.0117,1018.6257109349,1111122 
DISL,ioos:station:DISL:MBLA:1,2017-10-02T23:00:00Z,30.4367,-88.0117,1019.3029886682,1111122 
DISL,ioos:station:DISL:MBLA:1,2017-10-02T23:30:00Z,30.4367,-88.0117,1019.3029886682,1111122 
DISL,ioos:station:DISL:MBLA:1,2017-10-03T00:00:00Z,30.4367,-88.0117,1018.9643498016,1111122 
DISL,ioos:station:DISL:MBLA:1,2017-10-03T00:30:00Z,30.4367,-88.0117,1019.9802664016,1111122 
DISL,ioos:station:DISL:MBLA:1,2017-10-03T01:00:00Z,30.4367,-88.0117,1019.9802664016,1111122 
DISL,ioos:station:DISL:MBLA:1,2017-10-03T01:30:00Z,30.4367,-88.0117,1020.6575441349,1111122 
DISL,ioos:station:DISL:MBLA:1,2017-10-03T02:00:00Z,30.4367,-88.0117,1020.6575441349,1111122 
DISL,ioos:station:DISL:MBLA:1,2017-10-03T02:30:00Z,30.4367,-88.0117,1020.6575441349,1111122 
DISL,ioos:station:DISL:MBLA:1,2017-10-03T03:00:00Z,30.4367,-88.0117,1020.9961830016,1111122 
DISL,ioos:station:DISL:MBLA:1,2017-10-03T03:30:00Z,30.4367,-88.0117,1021.3348218682,1111122 
DISL,ioos:station:DISL:MBLA:1,2017-10-03T04:00:00Z,30.4367,-88.0117,1020.6575441349,1111122 
DISL,ioos:station:DISL:MBLA:1,2017-10-03T04:30:00Z,30.4367,-88.0117,1021.3348218682,1111122 
DISL,ioos:station:DISL:MBLA:1,2017-10-03T05:00:00Z,30.4367,-88.0117,1020.3189052682,1111122 
DISL,ioos:station:DISL:MBLA:1,2017-10-03T05:30:00Z,30.4367,-88.0117,1020.6575441349,1111122 
DISL,ioos:station:DISL:MBLA:1,2017-10-03T06:00:00Z,30.4367,-88.0117,1020.9961830016,1111122 
DISL,ioos:station:DISL:MBLA:1,2017-10-03T06:30:00Z,30.4367,-88.0117,1020.3189052682,1111122 
DISL,ioos:station:DISL:MBLA:1,2017-10-03T07:00:00Z,30.4367,-88.0117,1020.3189052682,1111122 
DISL,ioos:station:DISL:MBLA:1,2017-10-03T07:30:00Z,30.4367,-88.0117,1019.9802664016,1111122 
DISL,ioos:station:DISL:MBLA:1,2017-10-03T08:00:00Z,30.4367,-88.0117,1019.9802664016,1111122 
DISL,ioos:station:DISL:MBLA:1,2017-10-03T08:30:00Z,30.4367,-88.0117,1020.3189052682,1111122 
DISL,ioos:station:DISL:MBLA:1,2017-10-03T09:00:00Z,30.4367,-88.0117,1020.3189052682,1111122 
DISL,ioos:station:DISL:MBLA:1,2017-10-03T09:30:00Z,30.4367,-88.0117,1020.9961830016,1111122 
DISL,ioos:station:DISL:MBLA:1,2017-10-03T10:00:00Z,30.4367,-88.0117,1020.6575441349,1111122 
DISL,ioos:station:DISL:MBLA:1,2017-10-03T10:30:00Z,30.4367,-88.0117,1021.6734607349,1111122 
DISL,ioos:station:DISL:MBLA:1,2017-10-03T11:00:00Z,30.4367,-88.0117,1021.3348218682,1111122 
DISL,ioos:station:DISL:MBLA:1,2017-10-03T11:30:00Z,30.4367,-88.0117,1022.0120996016,1111122 
DISL,ioos:station:DISL:MBLA:1,2017-10-03T12:00:00Z,30.4367,-88.0117,1022.3507384682,1111122 
DISL,ioos:station:DISL:MBLA:1,2017-10-03T12:30:00Z,30.4367,-88.0117,1022.3507384682,1111122 
DISL,ioos:station:DISL:MBLA:1,2017-10-03T13:00:00Z,30.4367,-88.0117,1023.3666550682,1111122 
DISL,ioos:station:DISL:MBLA:1,2017-10-03T13:30:00Z,30.4367,-88.0117,1023.3666550682,1111122 
DISL,ioos:station:DISL:MBLA:1,2017-10-03T14:00:00Z,30.4367,-88.0117,1024.0439328016,1111122 
DISL,ioos:station:DISL:MBLA:1,2017-10-03T14:30:00Z,30.4367,-88.0117,1024.0439328016,1111122 
DISL,ioos:station:DISL:MBLA:1,2017-10-03T15:00:00Z,30.4367,-88.0117,1024.3825716682,1111122 
DISL,ioos:station:DISL:MBLA:1,2017-10-03T15:30:00Z,30.4367,-88.0117,1024.7212105349,1111122 
DISL,ioos:station:DISL:MBLA:1,2017-10-03T16:00:00Z,30.4367,-88.0117,1024.7212105349,1111122 
DISL,ioos:station:DISL:MBLA:1,2017-10-03T16:30:00Z,30.4367,-88.0117,1024.3825716682,1111122 
DISL,ioos:station:DISL:MBLA:1,2017-10-03T17:00:00Z,30.4367,-88.0117,1024.3825716682,1111122 
DISL,ioos:station:DISL:MBLA:1,2017-10-03T17:30:00Z,30.4367,-88.0117,1023.7052939349,1111122 
DISL,ioos:station:DISL:MBLA:1,2017-10-03T18:00:00Z,30.4367,-88.0117,1023.7052939349,1111122 
DISL,ioos:station:DISL:MBLA:1,2017-10-03T18:30:00Z,30.4367,-88.0117,1023.7052939349,1111122 
DISL,ioos:station:DISL:MBLA:1,2017-10-03T19:00:00Z,30.4367,-88.0117,1023.0280162016,1111122 
DISL,ioos:station:DISL:MBLA:1,2017-10-03T19:30:00Z,30.4367,-88.0117,1023.0280162016,1111122 
DISL,ioos:station:DISL:MBLA:1,2017-10-03T20:00:00Z,30.4367,-88.0117,1022.6893773349,1111122 
DISL,ioos:station:DISL:MBLA:1,2017-10-03T20:30:00Z,30.4367,-88.0117,1022.3507384682,1111122 
DISL,ioos:station:DISL:MBLA:1,2017-10-03T21:00:00Z,30.4367,-88.0117,1022.3507384682,1111122 
DISL,ioos:station:DISL:MBLA:1,2017-10-03T21:30:00Z,30.4367,-88.0117,1023.028419,1111122 
DISL,ioos:station:DISL:MBLA:1,2017-10-03T22:00:00Z,30.4367,-88.0117,1022.0,11111222 
DISL,ioos:station:DISL:MBLA:1,2017-10-03T22:30:00Z,30.4367,-88.0117,1023.028419,1111122 
DISL,ioos:station:DISL:MBLA:1,2017-10-03T23:00:00Z,30.4367,-88.0117,1022.7,11111222 
DISL,ioos:station:DISL:MBLA:1,2017-10-03T23:30:00Z,30.4367,-88.0117,1022.351141,1111122 
DISL,ioos:station:DISL:MBLA:1,2017-10-04T00:00:00Z,30.4367,-88.0117,1022.7,11111222 
DISL,ioos:station:DISL:MBLA:1,2017-10-04T00:30:00Z,30.4367,-88.0117,1023.028419,1111122 
DISL,ioos:station:DISL:MBLA:1,2017-10-04T01:00:00Z,30.4367,-88.0117,1023.4,11111222 
DISL,ioos:station:DISL:MBLA:1,2017-10-04T01:30:00Z,30.4367,-88.0117,1023.705697,1111122 
DISL,ioos:station:DISL:MBLA:1,2017-10-04T02:00:00Z,30.4367,-88.0117,1023.7,11111222 
DISL,ioos:station:DISL:MBLA:1,2017-10-04T02:30:00Z,30.4367,-88.0117,1024.382975,1111122 
DISL,ioos:station:DISL:MBLA:1,2017-10-04T03:00:00Z,30.4367,-88.0117,1024.7,11111222 
DISL,ioos:station:DISL:MBLA:1,2017-10-04T03:30:00Z,30.4367,-88.0117,1024.4,11111222 
DISL,ioos:station:DISL:MBLA:1,2017-10-04T04:00:00Z,30.4367,-88.0117,1024.0,11111222 
DISL,ioos:station:DISL:MBLA:1,2017-10-04T04:30:00Z,30.4367,-88.0117,1024.721614,1111122 
DISL,ioos:station:DISL:MBLA:1,2017-10-04T05:00:00Z,30.4367,-88.0117,1024.4,11111222 
DISL,ioos:station:DISL:MBLA:1,2017-10-04T05:30:00Z,30.4367,-88.0117,1023.705697,1111122 
DISL,ioos:station:DISL:MBLA:1,2017-10-04T06:00:00Z,30.4367,-88.0117,1024.0,11111222 
DISL,ioos:station:DISL:MBLA:1,2017-10-04T06:30:00Z,30.4367,-88.0117,1023.367058,1111122 
DISL,ioos:station:DISL:MBLA:1,2017-10-04T07:00:00Z,30.4367,-88.0117,1023.7,11111222 
DISL,ioos:station:DISL:MBLA:1,2017-10-04T07:30:00Z,30.4367,-88.0117,1023.367058,1111122 
DISL,ioos:station:DISL:MBLA:1,2017-10-04T08:00:00Z,30.4367,-88.0117,1023.0,11111222 
DISL,ioos:station:DISL:MBLA:1,2017-10-04T08:30:00Z,30.4367,-88.0117,1023.028419,1111122 
DISL,ioos:station:DISL:MBLA:1,2017-10-04T09:00:00Z,30.4367,-88.0117,1023.0,11111222 
DISL,ioos:station:DISL:MBLA:1,2017-10-04T09:30:00Z,30.4367,-88.0117,1022.68978,1111122 
DISL,ioos:station:DISL:MBLA:1,2017-10-04T10:00:00Z,30.4367,-88.0117,1022.7,11111222 
DISL,ioos:station:DISL:MBLA:1,2017-10-04T10:30:00Z,30.4367,-88.0117,1023.0,11111222 
DISL,ioos:station:DISL:MBLA:1,2017-10-04T11:00:00Z,30.4367,-88.0117,1023.367058,1111122 
DISL,ioos:station:DISL:MBLA:1,2017-10-04T11:30:00Z,30.4367,-88.0117,1024.0,11111222 
DISL,ioos:station:DISL:MBLA:1,2017-10-04T12:00:00Z,30.4367,-88.0117,1024.0,11111222 
DISL,ioos:station:DISL:MBLA:1,2017-10-04T12:30:00Z,30.4367,-88.0117,1024.044336,1111122 
DISL,ioos:station:DISL:MBLA:1,2017-10-04T13:00:00Z,30.4367,-88.0117,1024.0,11111222 
DISL,ioos:station:DISL:MBLA:1,2017-10-04T13:30:00Z,30.4367,-88.0117,1024.382975,1111122 
DISL,ioos:station:DISL:MBLA:1,2017-10-04T14:00:00Z,30.4367,-88.0117,1024.0,11111222 
DISL,ioos:station:DISL:MBLA:1,2017-10-04T14:30:00Z,30.4367,-88.0117,1024.721614,1111122 
DISL,ioos:station:DISL:MBLA:1,2017-10-04T15:00:00Z,30.4367,-88.0117,1024.7,11111222 
DISL,ioos:station:DISL:MBLA:1,2017-10-04T15:30:00Z,30.4367,-88.0117,1024.721614,1111122 
DISL,ioos:station:DISL:MBLA:1,2017-10-04T16:00:00Z,30.4367,-88.0117,1024.0,11111222 
DISL,ioos:station:DISL:MBLA:1,2017-10-04T16:30:00Z,30.4367,-88.0117,1024.382975,1111122 
DISL,ioos:station:DISL:MBLA:1,2017-10-04T17:00:00Z,30.4367,-88.0117,1024.0,11111222 
DISL,ioos:station:DISL:MBLA:1,2017-10-04T17:30:00Z,30.4367,-88.0117,1023.705697,1111122 
DISL,ioos:station:DISL:MBLA:1,2017-10-04T18:00:00Z,30.4367,-88.0117,1023.0,11111222 
DISL,ioos:station:DISL:MBLA:1,2017-10-04T18:30:00Z,30.4367,-88.0117,1022.351141,1111122 
DISL,ioos:station:DISL:MBLA:1,2017-10-04T19:00:00Z,30.4367,-88.0117,1022.7,11111222 
DISL,ioos:station:DISL:MBLA:1,2017-10-04T19:30:00Z,30.4367,-88.0117,1022.012502,1111122 
DISL,ioos:station:DISL:MBLA:1,2017-10-04T20:00:00Z,30.4367,-88.0117,1021.7,11111222 
DISL,ioos:station:DISL:MBLA:1,2017-10-04T20:30:00Z,30.4367,-88.0117,1021.335224,1111122 
DISL,ioos:station:DISL:MBLA:1,2017-10-04T21:00:00Z,30.4367,-88.0117,1021.3,11111222 
DISL,ioos:station:DISL:MBLA:1,2017-10-04T21:30:00Z,30.4367,-88.0117,1020.657946,1111122 
DISL,ioos:station:DISL:MBLA:1,2017-10-04T22:00:00Z,30.4367,-88.0117,1020.7,11111222 
DISL,ioos:station:DISL:MBLA:1,2017-10-04T22:30:00Z,30.4367,-88.0117,1020.996585,1111122 
DISL,ioos:station:DISL:MBLA:1,2017-10-04T23:00:00Z,30.4367,-88.0117,1020.7,11111222 
DISL,ioos:station:DISL:MBLA:1,2017-10-04T23:30:00Z,30.4367,-88.0117,1021.673863,1111122 
DISL,ioos:station:DISL:MBLA:1,2017-10-05T00:00:00Z,30.4367,-88.0117,1021.3,11111222 
DISL,ioos:station:DISL:MBLA:1,2017-10-05T00:30:00Z,30.4367,-88.0117,1021.335224,1111122 
DISL,ioos:station:DISL:MBLA:1,2017-10-05T01:00:00Z,30.4367,-88.0117,1021.7,11111222 
DISL,ioos:station:DISL:MBLA:1,2017-10-05T01:30:00Z,30.4367,-88.0117,1022.012502,1111122 
DISL,ioos:station:DISL:MBLA:1,2017-10-05T02:00:00Z,30.4367,-88.0117,1021.7,11111222 
DISL,ioos:station:DISL:MBLA:1,2017-10-05T02:30:00Z,30.4367,-88.0117,1021.7,11111222 
DISL,ioos:station:DISL:MBLA:1,2017-10-05T03:00:00Z,30.4367,-88.0117,1021.7,11111222 
DISL,ioos:station:DISL:MBLA:1,2017-10-05T03:30:00Z,30.4367,-88.0117,1022.0,11111222 
DISL,ioos:station:DISL:MBLA:1,2017-10-05T04:00:00Z,30.4367,-88.0117,1021.7,11111222 
DISL,ioos:station:DISL:MBLA:1,2017-10-05T04:30:00Z,30.4367,-88.0117,1021.335224,1111122 
DISL,ioos:station:DISL:MBLA:1,2017-10-05T05:00:00Z,30.4367,-88.0117,1021.3,11111222 
DISL,ioos:station:DISL:MBLA:1,2017-10-05T05:30:00Z,30.4367,-88.0117,1020.657946,1111122 
DISL,ioos:station:DISL:MBLA:1,2017-10-05T06:00:00Z,30.4367,-88.0117,1020.7,11111222 
DISL,ioos:station:DISL:MBLA:1,2017-10-05T06:30:00Z,30.4367,-88.0117,1019.980668,1111122 
DISL,ioos:station:DISL:MBLA:1,2017-10-05T07:00:00Z,30.4367,-88.0117,1020.0,11111222 
DISL,ioos:station:DISL:MBLA:1,2017-10-05T07:30:00Z,30.4367,-88.0117,1019.30339,1111122 
DISL,ioos:station:DISL:MBLA:1,2017-10-05T08:00:00Z,30.4367,-88.0117,1019.6,11111222 
DISL,ioos:station:DISL:MBLA:1,2017-10-05T08:30:00Z,30.4367,-88.0117,1019.642029,1111122 
DISL,ioos:station:DISL:MBLA:1,2017-10-05T09:00:00Z,30.4367,-88.0117,1019.3,11111222 
DISL,ioos:station:DISL:MBLA:1,2017-10-05T09:30:00Z,30.4367,-88.0117,1019.642029,1111122 
DISL,ioos:station:DISL:MBLA:1,2017-10-05T10:00:00Z,30.4367,-88.0117,1019.6,11111222 
DISL,ioos:station:DISL:MBLA:1,2017-10-05T10:30:00Z,30.4367,-88.0117,1019.642029,1111122 
DISL,ioos:station:DISL:MBLA:1,2017-10-05T11:00:00Z,30.4367,-88.0117,1019.6,11111222 
DISL,ioos:station:DISL:MBLA:1,2017-10-05T11:30:00Z,30.4367,-88.0117,1019.642029,1111122 
DISL,ioos:station:DISL:MBLA:1,2017-10-05T12:00:00Z,30.4367,-88.0117,1019.6,11111222 
DISL,ioos:station:DISL:MBLA:1,2017-10-05T12:30:00Z,30.4367,-88.0117,1019.980668,1111122 
DISL,ioos:station:DISL:MBLA:1,2017-10-05T13:00:00Z,30.4367,-88.0117,1020.3,11111222 
DISL,ioos:station:DISL:MBLA:1,2017-10-05T13:30:00Z,30.4367,-88.0117,1020.319307,1111122 
DISL,ioos:station:DISL:MBLA:1,2017-10-05T14:00:00Z,30.4367,-88.0117,1020.0,11111222 
DISL,ioos:station:DISL:MBLA:1,2017-10-05T14:30:00Z,30.4367,-88.0117,1020.996585,1111122 
DISL,ioos:station:DISL:MBLA:1,2017-10-05T15:00:00Z,30.4367,-88.0117,1020.3,11111222 
DISL,ioos:station:DISL:MBLA:1,2017-10-05T15:30:00Z,30.4367,-88.0117,1020.657946,1111122 
DISL,ioos:station:DISL:MBLA:1,2017-10-05T16:00:00Z,30.4367,-88.0117,1020.3,11111222 
DISL,ioos:station:DISL:MBLA:1,2017-10-05T16:30:00Z,30.4367,-88.0117,1019.980668,1111122 
DISL,ioos:station:DISL:MBLA:1,2017-10-05T17:00:00Z,30.4367,-88.0117,1019.3,11111222 
DISL,ioos:station:DISL:MBLA:1,2017-10-05T17:30:00Z,30.4367,-88.0117,1018.964751,1111122 
DISL,ioos:station:DISL:MBLA:1,2017-10-05T18:00:00Z,30.4367,-88.0117,1018.3,11111222 
DISL,ioos:station:DISL:MBLA:1,2017-10-05T18:30:00Z,30.4367,-88.0117,1018.287473,1111122 
DISL,ioos:station:DISL:MBLA:1,2017-10-05T19:00:00Z,30.4367,-88.0117,1017.3,11111222 
DISL,ioos:station:DISL:MBLA:1,2017-10-05T19:30:00Z,30.4367,-88.0117,1016.594278,1111122 
DISL,ioos:station:DISL:MBLA:1,2017-10-05T20:00:00Z,30.4367,-88.0117,1016.6,11111222 
DISL,ioos:station:DISL:MBLA:1,2017-10-05T20:30:00Z,30.4367,-88.0117,1015.917,1111122 
DISL,ioos:station:DISL:MBLA:1,2017-10-05T21:00:00Z,30.4367,-88.0117,1015.6,11111222 
DISL,ioos:station:DISL:MBLA:1,2017-10-05T21:30:00Z,30.4367,-88.0117,1015.917,1111122 
DISL,ioos:station:DISL:MBLA:1,2017-10-05T22:00:00Z,30.4367,-88.0117,1015.9,11111222 
DISL,ioos:station:DISL:MBLA:1,2017-10-05T22:30:00Z,30.4367,-88.0117,1015.578361,1111122 
DISL,ioos:station:DISL:MBLA:1,2017-10-05T23:00:00Z,30.4367,-88.0117,1015.6,11111222 
DISL,ioos:station:DISL:MBLA:1,2017-10-05T23:30:00Z,30.4367,-88.0117,1015.917,1111122 
DISL,ioos:station:DISL:MBLA:1,2017-10-06T00:00:00Z,30.4367,-88.0117,1015.9,11111222 
DISL,ioos:station:DISL:MBLA:1,2017-10-06T00:30:00Z,30.4367,-88.0117,1016.255639,1111122 
DISL,ioos:station:DISL:MBLA:1,2017-10-06T01:00:00Z,30.4367,-88.0117,1016.3,11111222 
DISL,ioos:station:DISL:MBLA:1,2017-10-06T01:30:00Z,30.4367,-88.0117,1016.255639,1111122 
DISL,ioos:station:DISL:MBLA:1,2017-10-06T02:00:00Z,30.4367,-88.0117,1016.6,11111222 
DISL,ioos:station:DISL:MBLA:1,2017-10-06T02:30:00Z,30.4367,-88.0117,1016.6,11111222 
DISL,ioos:station:DISL:MBLA:1,2017-10-06T03:00:00Z,30.4367,-88.0117,1016.9,11111222 
DISL,ioos:station:DISL:MBLA:1,2017-10-06T03:30:00Z,30.4367,-88.0117,1016.9,11111222 
DISL,ioos:station:DISL:MBLA:1,2017-10-06T04:00:00Z,30.4367,-88.0117,1016.9,11111222 
DISL,ioos:station:DISL:MBLA:1,2017-10-06T04:30:00Z,30.4367,-88.0117,1016.255639,1111122 
DISL,ioos:station:DISL:MBLA:1,2017-10-06T05:00:00Z,30.4367,-88.0117,1015.9,11111222 
DISL,ioos:station:DISL:MBLA:1,2017-10-06T05:30:00Z,30.4367,-88.0117,1016.255639,1111122 
DISL,ioos:station:DISL:MBLA:1,2017-10-06T06:00:00Z,30.4367,-88.0117,1015.9,11111222 
DISL,ioos:station:DISL:MBLA:1,2017-10-06T06:30:00Z,30.4367,-88.0117,1015.917,1111122 
DISL,ioos:station:DISL:MBLA:1,2017-10-06T07:00:00Z,30.4367,-88.0117,1015.6,11111222 
DISL,ioos:station:DISL:MBLA:1,2017-10-06T07:30:00Z,30.4367,-88.0117,1015.239722,1111122 
DISL,ioos:station:DISL:MBLA:1,2017-10-06T08:00:00Z,30.4367,-88.0117,1015.2,11111222 
DISL,ioos:station:DISL:MBLA:1,2017-10-06T08:30:00Z,30.4367,-88.0117,1014.901083,1111122 
DISL,ioos:station:DISL:MBLA:1,2017-10-06T09:00:00Z,30.4367,-88.0117,1014.9,11111222 
DISL,ioos:station:DISL:MBLA:1,2017-10-06T09:30:00Z,30.4367,-88.0117,1015.239722,1111122 
DISL,ioos:station:DISL:MBLA:1,2017-10-06T10:00:00Z,30.4367,-88.0117,1014.6,11111222 
DISL,ioos:station:DISL:MBLA:1,2017-10-06T10:30:00Z,30.4367,-88.0117,1015.239722,1111122 
DISL,ioos:station:DISL:MBLA:1,2017-10-06T11:00:00Z,30.4367,-88.0117,1014.9,11111222 
DISL,ioos:station:DISL:MBLA:1,2017-10-06T11:30:00Z,30.4367,-88.0117,1014.901083,1111122 
DISL,ioos:station:DISL:MBLA:1,2017-10-06T12:00:00Z,30.4367,-88.0117,1015.2,11111222 